Regional Weather Roundup
Issued by NWS

Home | Current Version | Previous Version | Graphics & Text | Print | Product List | Glossary On
Versions: 1 2 3 4 5 6 7 8 9 10 11 12 13 14 15 16 17 18 19 20 21 22 23 24 25 26 27 28 29 30 31 32 33 34 35 36 37 38 39 40 41 42 43 44 45 46 47 48 49 50
000
ASUS43 KMPX 040501
RWRMN
WEATHER ROUNDUP FOR MINNESOTA
NATIONAL WEATHER SERVICE TWIN CITIES/CHANHASSEN MN
1200 AM CDT TUE AUG 04 2015


NOTE: "FAIR" INDICATES FEW OR NO CLOUDS BELOW 12,000 FEET WITH NO
SIGNIFICANT WEATHER AND/OR OBSTRUCTIONS TO VISIBILITY. N/A MEANS
CURRENT SKY AND/OR WEATHER CONDITIONS ARE NOT AVAILABLE.

MNZ060>063-068>070-040600-
   Twin Cities Metro

CITY           SKY/WX    TMP DP  RH WIND       PRES   REMARKS
TWIN CITIES    PTCLDY    66  53  63 NW7       29.94R
ST PAUL        PTCLDY    67  53  61 NW9       29.93R
CRYSTAL        PTCLDY    67  53  61 W6        29.93R
BLAINE         PTCLDY    64  54  68 NW3       29.94R
LAKEVILLE      CLEAR     61  54  77 W3        29.94S
EDEN PRAIRIE   CLEAR     66  54  65 NW5       29.93R
SOUTH ST PAUL  PTCLDY    68  53  57 W3        29.93R
LAKE ELMO      FAIR      59  54  82 CALM      29.94R
$$
MNZ001>005-007-008-013>017-022>024-027-028-040600-
   Northwest Minnesota

CITY           SKY/WX    TMP DP  RH WIND       PRES   REMARKS
BEMIDJI        CLEAR     54  46  73 W6        29.93S
HALLOCK        CLEAR     54  50  87 CALM      29.92S
ROSEAU         CLEAR     54  48  82 CALM      29.92R
WARROAD        CLEAR     57  54  88 NW5       29.92S
THIEF RVR FALL CLEAR     55  50  82 CALM      29.94R
CROOKSTON      CLEAR     59  54  82 CALM      29.95R
FOSSTON        CLEAR     48  45  87 CALM      29.95S
DETROIT LAKES  CLEAR     59  52  77 CALM      29.98R
MOORHEAD       CLEAR     57  50  77 CALM      29.96S
PARK RAPIDS    CLEAR     55  48  77 CALM      29.95R
MAHNOMEN       FAIR      55  52  87 S6        29.95R
$$
MNZ006-009>011-018-025>026-040600-
   North Central Minnesota

CITY           SKY/WX    TMP DP  RH WIND       PRES   REMARKS
BAUDETTE       CLEAR     56  51  84 W7        29.90S
FLAG ISLAND    CLEAR     63  52  67 W9        29.89S
INTL FALLS     MOCLDY    49  48  97 CALM      29.89R
WASKISH        PTCLDY    63  54  72 NW5       29.91S
BIG FORK         N/A     50  48  93 CALM      29.92R FOG
LONGVILLE      CLEAR     54  52  94 CALM      29.93S
GRAND RAPIDS   CLEAR     52  48  87 CALM      29.92S
CRANE LAKE     CLOUDY    55  52  88 CALM      29.90S
ORR            CLEAR     52  50  93 CALM      29.87S
COOK           CLEAR     52  52 100 CALM      29.90S
WALKER         FAIR      52  49  89 W5        29.94R
$$
MNZ012-019>021-037-040600-
   Northeast Minnesota

CITY           SKY/WX    TMP DP  RH WIND       PRES   REMARKS
DULUTH         PTCLDY    55  50  83 W7        29.90S
ELY            MOCLDY    55  54  94 CALM      29.88S
HIBBING        CLEAR     47  45  93 CALM      29.91R
EVELETH        PTCLDY    52  50  93 CALM      29.91S
DULUTH HARBOR  CLEAR     63  55  77 S3        29.90S
TWO HARBORS    CLEAR     61  55  82 W5        29.86S
SILVER BAY     PTCLDY    59  54  82 W5        29.84S
GRAND MARAIS     N/A     56  50  80 CALM      29.82S
G MARAIS ARPRT PTCLDY    55  50  82 NW5       29.85S
$$
MNZ029>031-032-039>041-046>048-054>057-064-040600-
   West Central Minnesota

CITY           SKY/WX    TMP DP  RH WIND       PRES   REMARKS
FERGUS FALLS   CLEAR     61  54  77 E6        29.96S
WHEATON        CLEAR     54  48  82 CALM      29.99R
MORRIS         CLEAR     57  54  88 W3        29.97R
ALEXANDRIA     CLEAR     58  52  80 CALM      29.99S
ELBOW LAKE     FAIR      60  55  82 CALM      29.97S
WADENA         CLEAR     54  48  82 CALM      29.96S
GLENWOOD       CLEAR     61  52  72 N5        29.98F
APPLETON       CLEAR     57  52  82 CALM      29.97S
BENSON         CLEAR     54  52  94 CALM      29.98R
ORTONVILLE     CLEAR     61  52  72 CALM      29.97S
MADISON        CLEAR     57  54  88 CALM      29.98S
WILLMAR        FAIR      59  54  82 CALM      29.98S
$$
MNZ033>034-036-042>043-049>051-058-059-040600-
   Central Minnesota

CITY           SKY/WX    TMP DP  RH WIND       PRES   REMARKS
ST CLOUD       CLEAR     59  52  77 NW3       29.96R
SAUK CENTRE    FAIR      55  51  87 CALM      29.98S
PAYNESVILLE    CLEAR     52  50  92 CALM      29.97S
AITKIN         CLEAR     54  48  82 CALM      29.92S
PINE RIVER     CLEAR     50  46  87 CALM      29.98R
BRAINERD       CLEAR     53  50  89 CALM      29.95R
STAPLES        CLEAR     55  48  76 CALM      29.96S
LONG PRAIRIE   FAIR      54  52  94 CALM      29.98R
LITCHFIELD     CLEAR     63  52  67 NW5       29.97S
BUFFALO        CLEAR     65  53  63 CALM      29.96S
MAPLE LAKE     CLEAR     61  55  82 NW5       29.97R
$$
MNZ037-044-045-052-053-040600-
   East Central Minnesota

CITY           SKY/WX    TMP DP  RH WIND       PRES   REMARKS
PRINCETON      CLEAR     59  54  82 CALM      29.95R
MORA           CLEAR     55  52  88 CALM      29.96S
CAMBRIDGE      CLEAR     61  52  72 CALM      29.93S
RUSH CITY      MOCLDY    56  53  91 CALM      29.94S
MOOSE LAKE     CLEAR     52  50  93 CALM      29.91S
HINCKLEY       FAIR      54  52  94 CALM      29.93S
CLOQUET        CLEAR     54  48  82 W3        29.91F
MCGREGOR       CLEAR     54  50  87 CALM      29.93S
$$
MNZ071>073-080-081-089-090-097-098-040600-
   Southwest Minnesota

CITY           SKY/WX    TMP DP  RH WIND       PRES   REMARKS
MONTEVIDEO     CLEAR     57  48  72 CALM      29.99S
GRANITE FALLS  CLEAR     58  53  84 NW3       29.99S
CANBY          CLEAR     56  53  87 CALM      29.99S
MARSHALL       CLEAR     59  52  77 W5        29.99F
REDWOOD FALLS  CLEAR     64  53  67 W5        29.97R
OLIVIA         CLEAR     55  52  88 CALM      29.97S
PIPESTONE      CLEAR     64  55  72 CALM      30.00S
WINDOM         CLEAR     59  55  88 CALM      29.99S
WORTHINGTON    CLEAR     59  52  77 N5        30.00S
JACKSON        CLEAR     61  57  88 CALM      29.99F
TRACY          CLEAR     63  55  77 CALM      29.99S
SLAYTON        CLEAR     59  57  91 CALM      30.01S
$$
MNZ065>067-074>077-082>085-091>093-040600-
   South Central Minnesota

CITY           SKY/WX    TMP DP  RH WIND       PRES   REMARKS
MANKATO        CLEAR     63  52  67 W6        29.96S
NEW ULM        FAIR      57  54  88 W3        29.96S
ST JAMES         N/A     61  55  82 CALM      29.98S
FAIRMONT       CLEAR     61  52  72 CALM      29.97S
GLENCOE        CLEAR     59  56  88 NW3       29.95S
FARIBAULT      CLEAR     61  55  82 W5        29.95S
OWATONNA       CLEAR     57  52  82 SW6       29.96R
WASECA         CLEAR     54  52  94 CALM      29.97S
ALBERT LEA     CLEAR     59  55  88 CALM      29.97S
$$
MNZ078>079-086>088-094>096-040600-
   Southeast Minnesota

CITY           SKY/WX    TMP DP  RH WIND       PRES   REMARKS
ROCHESTER      CLEAR     57  52  83 W10       29.96S
RED WING       CLEAR     59  55  88 CALM      29.92R
STANTON        CLEAR     60  54  81 CALM      29.93S
DODGE CENTER   CLEAR     55  52  88 W6        29.95S
WINONA         CLEAR     61  55  82 SW3       29.92S
AUSTIN         CLEAR     61  55  82 CALM      29.96S
PRESTON        CLEAR     60  52  73 W8        29.96R
$$
ABBREVIATIONS USED IN REMARKS
   TC - TEMPERATURES IN CELSIUS
  WCI - WIND CHILL INDEX
   HX - HEAT INDEX
  VSB - VISIBILITY
$$



USA.gov is the U.S. government's official web portal to all federal, state and local government web resources and services.